Regional Weather Roundup
Issued by NWS Upton, NY

Current Version | Previous Version | Text Only | Print | Product List | Glossary On
Versions: 1 2 3 4 5 6 7 8 9 10 11 12 13 14 15 16 17 18 19 20 21 22 23 24 25 26 27 28
000
ASUS41 KOKX 242009
RWROKX

REGIONAL WEATHER ROUNDUP
NATIONAL WEATHER SERVICE NEW YORK NY
400 PM EDT SUN SEP 24 2017

NOTE: "FAIR" INDICATES FEW OR NO CLOUDS BELOW 12,000 FEET WITH NO
SIGNIFICANT WEATHER AND/OR OBSTRUCTIONS TO VISIBILITY.

NYZ071-072-176-178-NJZ106-104-242100-
NEW YORK CITY METRO AREA

CITY           SKY/WX    TMP DP  RH WIND       PRES   REMARKS
Central Park   SUNNY     89  63  41 N6        30.05F HX  90
Bronx Bot Gard   N/A     90  63  40 W5        30.03F HX  90
LaGuardia APRT MOSUNNY   90  64  42 N5        30.01F HX  91
Kennedy INTL   SUNNY     84  64  50 S8        30.04F
Breezy Point     N/A     79 N/A N/A S6          N/A
Newark/Liberty SUNNY     92  61  35 VRB6      30.01F HX  92
Teterboro      SUNNY     91  64  40 CALM      30.00F HX  92
$$

NYZ177-179-078>081-242100-
LONG ISLAND NEW YORK

CITY           SKY/WX    TMP DP  RH WIND       PRES   REMARKS
Jones Beach      N/A     77 N/A N/A S6          N/A
Matinecock PT    N/A     86 N/A N/A CALM        N/A
Farmingdale    SUNNY     82  62  50 S8        30.04S
MacArthur/ISP  SUNNY     83  63  50 S7        30.03F
Shirley        SUNNY     83  63  50 SE6       30.04F
Mt Sinai Harb    N/A     86 N/A N/A MISG        N/A
Westhampton    SUNNY     79  58  48 E5        30.05F
East Hampton   FAIR      78  58  50 S3        30.03F
Montauk          N/A     79  61  53 VRB3      30.05S
$$

NYZ052-065-067-242100-
HUDSON VALLEY

CITY           SKY/WX    TMP DP  RH WIND       PRES   REMARKS
White Plains   SUNNY     88  65  46 W6        30.03F HX  90
Larchmont Harb   N/A     79 N/A N/A E5          N/A
Croton On Huds   N/A     84 N/A N/A W7          N/A
Newburgh       NOT AVBL
Montgomery     SUNNY     88  66  48 N5        30.04F HX  90
Poughkeepsie   SUNNY     90  61  37 N5        30.02F HX  90
Albany         SUNNY     89  66  46 CALM      30.04F HX  91
$$

NJZ001-105-106-008-010-013-015-019>022-104-242100-
NEW JERSEY

CITY           SKY/WX    TMP DP  RH WIND       PRES   REMARKS
Newark/Liberty SUNNY     92  61  35 VRB6      30.01F HX  92
Teterboro      SUNNY     91  64  40 CALM      30.00F HX  92
Caldwell       SUNNY     90  66  45 VRB7      30.03F HX  92
Somerville     NOT AVBL
Linden         NOT AVBL
Perth Amboy      N/A     82 N/A N/A E6          N/A
Sussex         SUNNY     88  66  48 E3        30.05F HX  90
Andover          N/A     90  64  42 CALM      30.06F HX  91
Trenton        SUNNY     90  65  43 NE7       30.02F HX  92
Millville      SUNNY     90  68  48 E7        30.03F HX  94
Atlantic City  SUNNY     83  64  52 E8        30.03F
Wrightstown    SUNNY     87  66  49 NE5       30.00F
Toms River     SUNNY     86  64  47 E7        30.04F
Belmar         SUNNY     85  65  51 SE7       30.05S
$$

PAZ047>061-062-071-242100-
EASTERN PENNSYLVANIA

CITY           SKY/WX    TMP DP  RH WIND       PRES   REMARKS
Philadelphia   MOSUNNY   91  64  40 E7        30.02F HX  92
Allentown      SUNNY     90  64  42 NE6       30.04F HX  91
Scranton       SUNNY     90  64  42 MISG      30.08F HX  91
$$

CTZ002-004>006-009-010-012-RIZ004-006-007-MAZ004-011-015-242100-
SOUTHERN NEW ENGLAND
 IN CT

CITY           SKY/WX    TMP DP  RH WIND       PRES   REMARKS
Bradley INTL   MOSUNNY   91  64  40 N5        30.02F HX  92
Hartford       SUNNY     90  66  45 NE5       30.01F HX  92
Danbury        SUNNY     88  67  49 CALM      30.05F HX  91
Wtrbury/Oxford SUNNY     87  67  51 CALM      30.06F HX  90
Norwalk Harbor   N/A     82 N/A N/A MISG        N/A
Bridgeport     SUNNY     81  65  58 SW6       30.02F
Meriden        SUNNY     90  63  40 N3        30.01F HX  91
New Haven      SUNNY     82  63  52 S7        30.03F
Chester        FAIR      86  66  51 S5        30.04F
Groton         SUNNY     76  63  64 S5        30.02F
Wilimantic     SUNNY     91  65  41 VRB6      30.01F HX  93

 IN RI

CITY           SKY/WX    TMP DP  RH WIND       PRES   REMARKS
Providence     SUNNY     85  65  51 S7        30.03F
Block Island   SUNNY     78  60  53 S6        30.04F
Westerly       SUNNY     79  58  48 CALM      30.04F
 IN MA

CITY           SKY/WX    TMP DP  RH WIND       PRES   REMARKS
Boston         SUNNY     74  64  71 E6        30.02F
Worcester      SUNNY     85  64  49 CALM      30.06F
Westfield      SUNNY     91  64  40 N3        30.02F HX  92
Provincetown   SUNNY     71  65  81 N5        30.04S
Nantucket      SUNNY     73  69  87 E8        30.02F
$$

ANZ330-335-338-340-345-350-353-355-242100-
COASTAL MARINE OBSERVATIONS


STATION/POSITION TIME  SKY/WX   TEMP    WIND        PRES    VSBY  WAVE
                                AIR SEA DIR/SP/G                  HT/PER
                 (UTC)          (F)     (DEG/KT/KT) (MB)    (MI)  (FT/S)
NY HARB ENTRANCE 1850            77 75  160/  4/  4 1016.8          3/11
20 S FIRE ISLAND 1850            72 69   60/  2/  4 1017.6          4/14
GREAT SOUTH BAY  1915            74 73  140/  2/  4   N/A
23 SSW MONTAUK P 1850            69 66              1017.8          5/14
15 E BARNEGAT LI 1930               72                N/A           4/14
HUDSON CANYON    1850            69 70   40/ 10/ 12 1016.2          6/14
KINGS POINT      1942            84 72  350/  2/  3 1017.4
EXECUTION ROCKS  1945            80      50/  2/  4   N/A
WESTERN LI SOUND NOT AVBL
CENTRAL LI SOUND 1930            75     200/  4/  4   N/A           1
EASTERN LI SOUND NOT AVBL
ROBBINS REEF     1942            81     160/ 11/ 12 1017.3
$$


>>>>>>>>>>>>>>>>>>>>>>>>>>>> KEY <<<<<<<<<<<<<<<<<<<<<<<<<<<
>                                                          <
>     SKY/WX - Sky Condition/Present Weather               <
>     TMP    - Temperature in Fahrenheit                   <
>     DP     - Dew Point in Fahrenheit                     <
>     RH     - Relative Humidity in Percent                <
>     WIND   - Direction (from) and Speed in MPH           <
>     PRES   - Mean Sea Level Pressure (inches of Hg)      <
>     WCI    - Wind Chill Index                            <
>     VSB    - VISIBILITY IN MILES                         <
>     HX     - HEAT INDEX                                  <
>     TC     - TEMPERATURE IN CELSIUS                      <
>     VRB    - VARIABLE WIND DIRECTION                     <
>                                                          <
>>>>>>>>>>>>>>>>>>>>>>>>>>>> KEY <<<<<<<<<<<<<<<<<<<<<<<<<<<




USA.gov is the U.S. government's official web portal to all federal, state and local government web resources and services.